Carbondale, IL

10:51 AM CST on December 06, 2019 (GMT -0600)
Southern Illinois

Weather History for KMDH - October, 2019

Change the Weather History Date:

Tuesday, October 22, 2019

  Actual Average Record
Temperature  
Mean Temperature 54 °F -  
Max Temperature 64 °F 69 °F 89 °F (1953)
Min Temperature 44 °F 41 °F 19 °F (1952)
Degree Days  
Heating Degree Days 12    
Growing Degree Days 4 (Base 50)    
Moisture  
Dew Point 36 °F    
Average Humidity 55    
Maximum Humidity 76    
Minimum Humidity 23    
Precipitation  
Precipitation 0.00 in - - ()
Sea Level Pressure  
Sea Level Pressure 29.92 in    
Wind  
Wind Speed 9 mph (WSW)    
Max Wind Speed 17 mph    
Max Gust Speed 30 mph    
Visibility 10 miles    
Events      
Averages and records for this station are not official NWS values.
T = Trace of Precipitation, MM = Missing Value Source: NWS Daily Summary

Daily Weather History Graph

Daily Weather History Graph

Search for Another Location

Airport or City:

Astronomy

Oct. 22, 2019 Rise Set
Actual Time 7:11 AM CDT 6:10 PM CDT
Civil Twilight 6:45 AM CDT 6:37 PM CDT
Nautical Twilight 6:14 AM CDT 7:07 PM CDT
Astronomical Twilight 5:44 AM CDT 7:38 PM CDT
Moon 12:30 AM CDT (10/22) 3:11 PM CDT (10/22)
Length of Visible Light 11h 51m
Length of Day
10h 58m
Last Quarter, 37% of the Moon is Illuminated
Oct 22
Last Quarter
Oct 27
New
Nov 4
First Quarter
Nov 12
Full
Nov 19
Last Quarter

Hourly Weather History & Observations

Time (CDT) Temp. Windchill Dew Point Humidity Pressure Visibility Wind Dir Wind Speed Gust Speed Precip Events Conditions
12:52 AM 54.0 °F - 39.9 °F 59% 29.80 in 10.0 mi SW 9.2 mph - N/A   Clear
1:52 AM 51.1 °F - 39.9 °F 66% 29.80 in 10.0 mi SW 4.6 mph - N/A   Clear
2:52 AM 51.1 °F - 39.0 °F 63% 29.81 in 10.0 mi WSW 6.9 mph - N/A   Clear
3:52 AM 48.9 °F - 39.0 °F 69% 29.82 in 10.0 mi WSW 3.5 mph - N/A   Clear
4:52 AM 46.9 °F - 39.0 °F 74% 29.83 in 10.0 mi SW 8.1 mph - N/A   Clear
5:52 AM 46.0 °F 43.1 °F 37.9 °F 73% 29.85 in 10.0 mi SSW 5.8 mph - N/A   Clear
6:52 AM 46.0 °F 42.5 °F 39.0 °F 76% 29.88 in 10.0 mi WSW 6.9 mph - N/A   Clear
7:52 AM 48.0 °F - 39.9 °F 74% 29.88 in 10.0 mi WSW 6.9 mph - N/A   Clear
8:52 AM 52.0 °F - 39.9 °F 63% 29.91 in 10.0 mi WSW 12.7 mph 20.7 mph N/A   Clear
9:52 AM 54.0 °F - 39.9 °F 59% 29.94 in 10.0 mi WSW 15.0 mph 26.5 mph N/A   Clear
10:52 AM 57.0 °F - 39.9 °F 53% 29.94 in 10.0 mi WSW 16.1 mph 24.2 mph N/A   Clear
11:52 AM 60.1 °F - 39.0 °F 46% 29.94 in 10.0 mi West 16.1 mph 25.3 mph N/A   Clear
12:52 PM 62.1 °F - 37.0 °F 39% 29.94 in 10.0 mi WSW 17.3 mph 29.9 mph N/A   Clear
1:52 PM 63.0 °F - 35.1 °F 35% 29.92 in 10.0 mi WSW 16.1 mph 24.2 mph N/A   Clear
2:52 PM 63.0 °F - 30.9 °F 30% 29.92 in 10.0 mi West 15.0 mph 23.0 mph N/A   Clear
3:52 PM 63.0 °F - 27.0 °F 26% 29.94 in 10.0 mi WSW 15.0 mph 25.3 mph N/A   Clear
4:52 PM 62.1 °F - 24.1 °F 23% 29.94 in 10.0 mi West 13.8 mph 28.8 mph N/A   Clear
5:52 PM 57.9 °F - 27.0 °F 31% 29.95 in 10.0 mi West 8.1 mph - N/A   Clear
6:52 PM 52.0 °F - 30.0 °F 43% 29.98 in 10.0 mi WSW 6.9 mph - N/A   Clear
7:52 PM 48.9 °F - 32.0 °F 52% 30.00 in 10.0 mi WSW 6.9 mph - N/A   Clear
8:52 PM 48.9 °F - 33.1 °F 54% 30.02 in 10.0 mi WSW 5.8 mph - N/A   Clear
9:52 PM 44.1 °F 41.5 °F 35.1 °F 71% 30.04 in 10.0 mi SW 4.6 mph - N/A   Clear
10:52 PM 44.1 °F 40.8 °F 35.1 °F 71% 30.04 in 10.0 mi SW 5.8 mph - N/A   Clear
11:52 PM 44.1 °F 40.8 °F 34.0 °F 68% 30.05 in 10.0 mi SW 5.8 mph - N/A   Clear